User: anonymous   Login
Location: Estes Par
(40.3770°N, 105.5210°W)
Time: 22:21:57
(UTC-06:00)
Language:

N. Korean satellite - Orbit

View from above orbital plane
View from above orbital plane
View from above satellite
View from above satellite

Ground track
Ground track

The orbit data is extracted from the following two-line orbital elements,

1 39026U 12072A   18203.61207455 +.00001238 +00000-0 +48702-4 0  9995
2 39026 097.2100 212.7737 0038599 194.8417 165.1692 15.26849586311007
Epoch (UTC): 22 July 2018 14:41:23
Eccentricity: 0.0038599
inclination: 97.2100°
perigee height: 459 km
apogee height: 512 km
right ascension of ascending node: 212.7737°
argument of perigee: 194.8417°
revolutions per day: 15.26849586
mean anomaly at epoch: 165.1692°
orbit number at epoch: 31100

The dashed part of the orbit path shows where the satellite is in the earth's shadow,  

DLR